sat.trackr.live / text

‹ back to catalog

STARLINK-30871

NORAD 58228 · 2023-170Y

PAYLOAD ACTIVE UNKNOWN

§ Identity

Operator
Country
US
Launch date
2023-11-03
Launch site
AFETR
Launch vehicle
Mass (kg)
RCS (m²)

Purposes: comms

External: N2YO · Heavens-Above · Gunter

§ Orbital elements

Epoch: 2026-05-24T07:38:17.721888Z

Period
94.27 min
Inclination
43.0018°
Eccentricity
0.0000923
Mean motion
15.27575479 rev/d
Perigee alt
482.4 km
Apogee alt
483.7 km
Semi-major
6,861.2 km
B*
-2.4821e-5
RAAN
127.2875°
Arg perigee
261.1149°
Mean anomaly
98.9598°
Rev number
14,186

§ Raw data

STARLINK-308711 58228U 23170Y   26144.31826067 -.00000945  00000+0 -24821-4 0  99982 58228  43.0018 127.2875 0000923 261.1149  98.9598 15.27575479141863

JSON: /api/v1/satellites/58228 · /tle

For live sub-satellite position, see the globe view (requires WebGL).

§ Visibility from observer

Set your observer location to see the next 7 days of passes ≥ 10°. The values pass through the URL so the page stays shareable.

No JS? Fill the form by hand. The geolocation button needs JavaScript.